Location: New Plymouth
(39.0670°S, 174.0830°E)
Time: 03:15:45
(UTC+13:00)

SL-08 R/B - Pass Details

Date: 24 January 2019
Orbit: 946 x 994 km, 83.0° (Epoch: 21 February)

Event Time Altitude Azimuth Distance (km) Brightness Sun altitude
Exits shadow 22:39:26 19° 360° (N) 2,102 5.8 -18.6°
Maximum altitude 22:44:00 82° 85° (E) 975 4.4 -19.2°
Drops below altitude 10° 22:50:14 10° 171° (S) 2,721 7.3 -20.0°
Sets 22:52:45 0° 171° (S) 3,681 8.1 -20.4°
